McGregor, MN

7:39 AM CST on February 12, 2016 (GMT -0600)
McGregor

Weather History for KHZX - March, 2013

Change the Weather History Date:

Monday, March 4, 2013

  Actual Average (KAIT) Record (KAIT)
Temperature  
Mean Temperature 26 °F -  
Max Temperature 32 °F 33 °F 48 °F (1968)
Min Temperature 21 °F 11 °F -18 °F (1971)
Degree Days  
Heating Degree Days 38    
Moisture  
Dew Point 16 °F    
Average Humidity 68    
Maximum Humidity 93    
Minimum Humidity 38    
Precipitation  
Precipitation 0.05 in - - ()
Sea Level Pressure  
Sea Level Pressure 30.00 in    
Wind  
Wind Speed 11 mph (East)    
Max Wind Speed 18 mph    
Max Gust Speed 25 mph    
Visibility 8 miles    
Events      
Averages and records for this station are not official NWS values.
T = Trace of Precipitation, MM = Missing Value Source: NWS Daily Summary

Daily Weather History Graph

Daily Weather History Graph

Search for Another Location

Airport or City:

Trip Planner

Search our weather history database for the weather conditions in past years. The results will help you decide how hot, cold, wet, or windy it might be!

Date:

Astronomy

Mar. 04, 2013 Rise Set
Actual Time 6:46 AM CST 6:03 PM CST
Civil Twilight 6:16 AM CST 6:34 PM CST
Nautical Twilight 5:41 AM CST 7:09 PM CST
Astronomical Twilight 5:06 AM CST 7:44 PM CST
Moon 1:11 AM CST (3/4) 10:30 AM CST (3/4)
Length of Visible Light 12h 17m
Length of Day
11h 17m
Waning Gibbous, 52% of the Moon is Illuminated
Mar 4
Waning Gibbous
Mar 4
Last Quarter
Mar 11
New
Mar 19
First Quarter
Mar 27
Full

Hourly Weather History & Observations

Time (CST) Temp. Windchill Dew Point Humidity Pressure Visibility Wind Dir Wind Speed Gust Speed Precip Events Conditions
12:13 AM 23.0 °F 11.1 °F 12.2 °F 63% 30.02 in 10.0 mi East 12.7 mph 16.1 mph N/A   Overcast
12:33 AM 21.2 °F 9.5 °F 12.2 °F 68% 30.02 in 10.0 mi East 11.5 mph - N/A   Overcast
12:53 AM 21.2 °F 8.9 °F 14.0 °F 74% 30.01 in 10.0 mi East 12.7 mph - N/A   Overcast
1:13 AM 21.2 °F 10.1 °F 14.0 °F 74% 30.01 in 10.0 mi East 10.4 mph - N/A   Overcast
1:52 AM 21.2 °F 10.1 °F 14.0 °F 74% 30.01 in 10.0 mi East 10.4 mph - N/A   Overcast
2:12 AM 21.2 °F 10.1 °F 14.0 °F 74% 30.01 in 10.0 mi East 10.4 mph - N/A   Overcast
2:33 AM 21.2 °F 10.1 °F 14.0 °F 74% 30.00 in 10.0 mi East 10.4 mph - N/A   Overcast
2:53 AM 21.2 °F 10.9 °F 14.0 °F 74% 30.00 in 10.0 mi East 9.2 mph - N/A   Overcast
3:13 AM 21.2 °F 10.9 °F 14.0 °F 74% 30.00 in 10.0 mi East 9.2 mph - N/A   Overcast
3:33 AM 21.2 °F 10.1 °F 14.0 °F 74% 29.99 in 10.0 mi East 10.4 mph - N/A   Overcast
3:52 AM 21.2 °F 9.5 °F 14.0 °F 74% 29.99 in 10.0 mi East 11.5 mph - N/A   Overcast
4:12 AM 21.2 °F 10.1 °F 14.0 °F 74% 29.99 in 10.0 mi East 10.4 mph - N/A   Overcast
4:31 AM 21.2 °F 10.9 °F 14.0 °F 74% 29.99 in 10.0 mi East 9.2 mph - N/A   Overcast
4:53 AM 21.2 °F 10.9 °F 14.0 °F 74% 29.99 in 10.0 mi East 9.2 mph - N/A   Overcast
5:13 AM 21.2 °F 10.9 °F 12.2 °F 68% 29.99 in 10.0 mi East 9.2 mph - N/A   Overcast
5:31 AM 21.2 °F 10.9 °F 12.2 °F 68% 29.99 in 10.0 mi East 9.2 mph - N/A   Overcast
5:53 AM 21.2 °F 11.7 °F 12.2 °F 68% 29.99 in 10.0 mi East 8.1 mph - N/A   Overcast
6:13 AM 21.2 °F 10.1 °F 12.2 °F 68% 29.99 in 10.0 mi East 10.4 mph - N/A   Overcast
6:31 AM 21.2 °F 10.9 °F 10.4 °F 63% 29.99 in 10.0 mi East 9.2 mph - N/A   Overcast
6:53 AM 23.0 °F 13.1 °F 10.4 °F 59% 29.99 in 10.0 mi East 9.2 mph - N/A   Overcast
7:13 AM 23.0 °F 13.1 °F 10.4 °F 59% 29.99 in 10.0 mi East 9.2 mph - N/A   Overcast
7:33 AM 23.0 °F 12.4 °F 10.4 °F 59% 30.00 in 10.0 mi East 10.4 mph - N/A   Overcast
7:51 AM 23.0 °F 14.7 °F 10.4 °F 59% 30.00 in 10.0 mi East 6.9 mph - N/A   Overcast
8:12 AM 23.0 °F 13.1 °F 10.4 °F 59% 30.00 in 10.0 mi East 9.2 mph - N/A   Overcast
8:32 AM 24.8 °F 14.6 °F 10.4 °F 54% 30.00 in 10.0 mi East 10.4 mph - N/A   Overcast
8:52 AM 24.8 °F 13.4 °F 10.4 °F 54% 30.00 in 10.0 mi East 12.7 mph - N/A   Overcast
9:13 AM 26.6 °F 15.7 °F 10.4 °F 51% 30.00 in 10.0 mi ESE 12.7 mph 17.3 mph N/A   Overcast
9:33 AM 26.6 °F 16.2 °F 10.4 °F 51% 30.00 in 10.0 mi ESE 11.5 mph - N/A   Overcast
9:53 AM 26.6 °F 16.8 °F 10.4 °F 51% 30.01 in 10.0 mi ESE 10.4 mph - N/A   Overcast
10:11 AM 26.6 °F 15.2 °F 12.2 °F 55% 30.00 in 7.0 mi ESE 13.8 mph 21.9 mph N/A   Overcast
10:33 AM 26.6 °F 16.2 °F 14.0 °F 59% 30.00 in 10.0 mi ESE 11.5 mph 18.4 mph N/A   Overcast
10:53 AM 26.6 °F 14.7 °F 12.2 °F 55% 29.99 in 10.0 mi East 15.0 mph 18.4 mph N/A   Overcast
11:13 AM 28.4 °F 17.0 °F 12.2 °F 51% 29.99 in 10.0 mi East 15.0 mph 18.4 mph N/A   Overcast
11:53 AM 30.2 °F 18.9 °F 10.4 °F 44% 29.98 in 10.0 mi East 16.1 mph - N/A   Overcast
12:13 PM 30.2 °F 19.3 °F 8.6 °F 40% 29.98 in 10.0 mi ESE 15.0 mph 21.9 mph N/A   Overcast
12:53 PM 32.0 °F 21.2 °F 10.4 °F 41% 29.96 in 10.0 mi East 16.1 mph 21.9 mph N/A   Overcast
1:13 PM 32.0 °F 21.2 °F 10.4 °F 41% 29.95 in 10.0 mi ESE 16.1 mph - N/A   Overcast
1:33 PM 32.0 °F 20.8 °F 8.6 °F 38% 29.95 in 10.0 mi ESE 17.3 mph 25.3 mph N/A   Overcast
1:53 PM 30.2 °F 19.8 °F 10.4 °F 44% 29.96 in 10.0 mi ESE 13.8 mph 25.3 mph N/A   Overcast
2:12 PM 30.2 °F 18.1 °F 12.2 °F 47% 29.95 in 10.0 mi SE 18.4 mph 25.3 mph N/A   Overcast
2:32 PM 30.2 °F 18.9 °F 12.2 °F 47% 29.95 in 10.0 mi ESE 16.1 mph 25.3 mph N/A   Overcast
2:53 PM 30.2 °F 19.8 °F 12.2 °F 47% 29.95 in 10.0 mi ESE 13.8 mph 21.9 mph N/A   Overcast
3:13 PM 30.2 °F 19.3 °F 15.8 °F 55% 29.96 in 10.0 mi ESE 15.0 mph 21.9 mph N/A   Overcast
3:33 PM 28.4 °F 18.0 °F 19.4 °F 69% 29.98 in 5.0 mi ESE 12.7 mph 19.6 mph N/A   Overcast
3:51 PM 28.4 °F 18.5 °F 17.6 °F 64% 29.97 in 5.0 mi ESE 11.5 mph 20.7 mph N/A   Overcast
4:13 PM 30.2 °F 19.3 °F 15.8 °F 55% 29.97 in 10.0 mi ESE 15.0 mph - N/A   Overcast
4:33 PM 30.2 °F 20.8 °F 17.6 °F 60% 29.97 in 10.0 mi East 11.5 mph - N/A   Overcast
4:52 PM 28.4 °F 19.1 °F 17.6 °F 64% 29.98 in 10.0 mi ESE 10.4 mph 19.6 mph N/A   Overcast
5:13 PM 28.4 °F 17.5 °F 19.4 °F 69% 29.98 in 7.0 mi ESE 13.8 mph 19.6 mph N/A   Overcast
5:33 PM 28.4 °F 17.5 °F 21.2 °F 74% 29.98 in 7.0 mi ESE 13.8 mph 21.9 mph N/A   Overcast
5:53 PM 28.4 °F 18.0 °F 21.2 °F 74% 29.99 in 7.0 mi East 12.7 mph - N/A   Overcast
6:12 PM 28.4 °F 18.5 °F 21.2 °F 74% 29.99 in 5.0 mi East 11.5 mph - N/A   Overcast
6:33 PM 26.6 °F 15.7 °F 23.0 °F 86% 30.00 in 7.0 mi East 12.7 mph 18.4 mph N/A   Overcast
6:52 PM 26.6 °F 16.8 °F 23.0 °F 86% 30.00 in 7.0 mi East 10.4 mph - N/A   Overcast
7:13 PM 26.6 °F 16.2 °F 23.0 °F 86% 30.00 in 7.0 mi East 11.5 mph - N/A   Overcast
7:32 PM 26.6 °F 16.2 °F 21.2 °F 80% 30.00 in 5.0 mi East 11.5 mph - N/A   Overcast
7:52 PM 26.6 °F 16.8 °F 23.0 °F 86% 30.01 in 2.5 mi East 10.4 mph - 0.01 in   Overcast
8:32 PM 26.6 °F 18.2 °F 23.0 °F 86% 30.02 in 1.0 mi East 8.1 mph - 0.01 in   Overcast
8:52 PM 26.6 °F 19.1 °F 23.0 °F 86% 30.02 in 0.5 mi East 6.9 mph - 0.01 in   Overcast
9:12 PM 26.6 °F 20.0 °F 23.0 °F 86% 30.03 in 0.8 mi East 5.8 mph - N/A   Overcast
9:33 PM 26.6 °F 21.2 °F 23.0 °F 86% 30.04 in 0.5 mi East 4.6 mph - N/A   Overcast
9:52 PM 24.8 °F 19.1 °F 23.0 °F 93% 30.04 in 0.5 mi East 4.6 mph - N/A   Overcast
10:12 PM 24.8 °F 16.9 °F 23.0 °F 93% 30.03 in 1.2 mi East 6.9 mph - N/A   Overcast
10:31 PM 24.8 °F 16.1 °F 23.0 °F 93% 30.02 in 1.2 mi East 8.1 mph - N/A   Overcast
10:53 PM 24.8 °F 15.3 °F 23.0 °F 93% 30.03 in 1.0 mi East 9.2 mph - 0.01 in   Overcast
11:13 PM 24.8 °F 14.6 °F 23.0 °F 93% 30.03 in 1.5 mi East 10.4 mph - 0.01 in   Overcast
11:31 PM 24.8 °F 16.1 °F 23.0 °F 93% 30.03 in 1.2 mi East 8.1 mph - 0.02 in   Overcast
11:52 PM 24.8 °F 16.9 °F 23.0 °F 93% 30.03 in 1.0 mi East 6.9 mph - 0.02 in   Overcast